JO-97
1 43803U 18099AX  24343.41741958  .00018401  00000-0  10131-2 0  9992
2 43803  97.4967  38.7119 0009809  67.2674 292.9594 15.14042898328992
Suomi 100
1 43804U 18099AY  24343.72385570  .00015915  00000-0  91250-3 0  9990
2 43804  97.5032  38.6932 0015048  64.9663 295.3128 15.12564012329001
ISAT
1 43879U 18111D   24343.26705253  .00024853  00000-0  11733-2 0  9998
2 43879  97.6058 248.9448 0013398 111.3535 248.9130 15.19352083325767
UWE-4
1 43880U 18111E   24343.28202951  .00021847  00000-0  10937-2 0  9994
2 43880  97.5991 248.4364 0016231 122.3798 237.9008 15.17298353325756
Sparrow
1 43881U 18111F   24343.49808122  .00027623  00000-0  12757-2 0  9990
2 43881  97.6170 251.4673 0009541 141.2127 218.9794 15.20129964325875
Prox-1
1 44339U 19036A   24343.59249334  .00019647  00000-0  29159-2 0  9992
2 44339  23.9969 178.1220 0007306 148.9378 211.1551 14.73506770290939
SONATE
1 44400U 19038Q   24343.59521755  .00055877  00000-0  99681-3 0  9996
2 44400  97.7131 347.2815 0010864 187.0182 173.0918 15.49833452300936
Taurus 1
1 44530U 19059C   24343.78457892  .00014716  00000-0  30067-2 0  9993
2 44530  98.5889 109.3998 0010681 237.4609 122.5559 14.60935459277204
Duchifat 3
1 44854U 19089C   24343.57023996  .00039264  00000-0  13882-2 0  9997
2 44854  36.9511  62.1367 0010655 122.0255 238.1532 15.28217999274775
TO-108
1 44881U 19093C   24343.78461001  .00002446  00000-0  29381-3 0  9992
2 44881  97.8136  57.1691 0015362 109.6558 250.6316 14.84805815268947
FloripaSat 1
1 44885U 19093G   24343.76818733  .00011234  00000-0  10399-2 0  9995
2 44885  97.8296  65.4034 0012297  97.1073 263.1546 14.94629210269408
RS-44
1 44909U 19096E   24343.53353118  .00000030  00000-0  77728-4 0  9994
2 44909  82.5215 348.9221 0217552   3.8952 356.3779 12.79736745231275
UPMSat 2
1 46276U 20061E   24343.78685051  .00043085  00000-0  86844-3 0  9993
2 46276  97.2739  49.0910 0000880 157.5119 202.6169 15.46434787237032
AmicalSat
1 46287U 20061R   24343.46897528  .00278016  00000-0  17705-2 0  9997
2 46287  97.3161  53.8730 0002678 283.1834  76.9132 15.75632241236560
SALSAT
1 46495U 20068K   24343.47493645  .00013148  00000-0  64717-3 0  9997
2 46495  97.8396 307.9448 0014932  76.8437 283.4461 15.18031021230703
IDEASSat
1 47458U 21006AX  24343.67053116  .04016225  23663-5  15154-2 0  9995
2 47458  97.2764  48.3404 0007246 298.1341  61.9218 16.24294052215791
CubeSX-Sirius-HSE
1 47951U 21022V   24343.79124126  .00062320  00000-0  14376-2 0  9997
2 47951  97.4397 243.2192 0006746 224.7988 135.2715 15.42325378205318
CubeSX-HSE
1 47952U 21022W   24343.78669502  .00061423  00000-0  13998-2 0  9991
2 47952  97.4393 243.3606 0006834 222.6885 137.3832 15.42693181205321
KSU-Cubesat
1 47954U 21022Y   24343.73001409  .00099854  00000-0  16521-2 0  9998
2 47954  97.4396 245.9720 0005175 193.5821 166.5292 15.51835509205207
GRBAlpha
1 47959U 21022AD  24343.80975903  .00058755  00000-0  13408-2 0  9996
2 47959  97.4393 243.5523 0006739 222.5188 137.5538 15.42666053204150
Orbicraft-Zorkiy
1 47960U 21022AE  24343.82702842  .00087076  00000-0  16329-2 0  9993
2 47960  97.4430 245.8137 0005166 210.1745 149.9208 15.48323327204965
TUBIN
1 48900U 21059X   24343.74196701  .00039517  00000-0  92271-3 0  9998
2 48900  97.6619 135.0621 0005207 185.7640 174.3548 15.42083381191709
LEDSAT
1 49069U 21073D   24343.72116681  .00040958  00000-0  10958-2 0  9990
2 49069  97.4161  54.8661 0014916  25.7200 334.4784 15.37820897183145
CUTE
1 49263U 21088D   24343.47140171  .00053586  00000-0  16148-2 0  9993
2 49263  97.4758  49.6179 0010970 182.4118 177.7074 15.34082218176218
TeikyoSat 4
1 49396U 21102B   24343.48631463  .00003814  00000-0  26404-3 0  9993
2 49396  97.4370  22.4136 0014028  46.0095 314.2287 15.06170535168971
Z-Sat
1 49399U 21102E   24343.76924011  .00007593  00000-0  44828-3 0  9999
2 49399  97.4087  24.8071 0019687  21.8664 338.3402 15.11633408169338
KOSEN 1
1 49402U 21102H   24343.39026391  .00012050  00000-0  62708-3 0  9998
2 49402  97.4007  26.6501 0017310   3.9806 356.1562 15.16050351169490
HO-113
1 50466U 21131B   24343.81495234  .00001533  00000-0  49747-3 0  9997
2 50466  98.5213  68.0743 0003552 337.5513  22.5519 14.40331152155134
IRIS-A
1 51044U 22002BN  24343.53605231  .00065254  00000-0  12506-2 0  9999
2 51044  97.3604  50.8893 0004824 124.5910 235.5796 15.47786873161223
Foresail-1
1 52766U 22057AL  24343.36966439  .00056262  00000-0  10717-2 0  9993
2 52766  97.5970 114.9266 0007382 231.6197 128.4390 15.47986841141234
SNUGLITE 2
1 52899U 22065F   24343.37100320  .00003125  00000-0  62969-3 0  9996
2 52899  98.1419 121.5636 0007044 335.2692  24.8171 14.62192107129701
IO-117
1 53106U 22080B   24340.33076919 -.00000003  00000-0  00000-0 0  9992
2 53106  70.1317 133.0636 0008362  68.7653 291.3899  6.42557789 56265
FO-118
1 54684U 22167C   24343.79605575  .00126401  00000-0  17826-2 0  9995
2 54684  97.6144 135.6164 0008000 252.7324 107.3055 15.56130629111179
SSS-2B
1 56184U 23054G   24343.75325381  .00555421  12284-3  17247-2 0  9993
2 56184  97.3334 246.8917 0006045 114.2699 245.9207 15.91591808 93287
SO-120
1 56992U 23084BU  24343.81423906  .00159362  00000-0  20558-2 0  9995
2 56992  97.5360 108.1285 0003483 130.6704 229.4854 15.58445171 83047
MRC-100
1 56993U 23084BV  24343.82747818  .00380437  00000-0  25033-2 0  9990
2 56993  97.5312 109.9836 0001568 287.9777  72.1316 15.74587629 83177
UmKA 1 (RS40S)
1 57172U 23091G   24343.81898936  .00010905  00000-0  64328-3 0  9996
2 57172  97.5885  34.3205 0014270 242.1005 117.8780 15.11644936 79830
CubeBel-2 (EU11S)
1 57175U 23091K   24343.81829138  .00015153  00000-0  84094-3 0  9999
2 57175  97.5886  34.6167 0012377 253.7413 106.2457 15.13778901 79858
VERONIKA
1 58261U 23174F   24343.73540327  .00051161  00000-0  14424-2 0  9997
2 58261  97.4408  58.3071 0008821 346.9917  13.1098 15.36212092 60355
KAFASAT
1 58317U 23174BP  24343.77423815  .00089560  00000-0  18049-2 0  9996
2 58317  97.4333  60.2494 0007522 313.2146  46.8475 15.46207696 60507
ENSO
1 58470U 23185J   24343.80902251  .00040841  00000-0  11741-2 0  9999
2 58470  97.4033  49.7888 0010093  24.4967 335.6754 15.35643787 56813
EIRSAT-1
1 58472U 23185L   24343.77065393  .00047881  00000-0  12740-2 0  9995
2 58472  97.4026  50.1089 0009326  23.5873 336.5797 15.38024037 56832
SONATE-2
1 59112U 24043Q   24343.58914160  .00022530  00000-0  86014-3 0  9995
2 59112  97.4948 106.6340 0013400  45.8715 314.3623 15.26574122 42338
MO-122
1 60209U 24125G   24343.83000132  .00023836  00000-0  90230-3 0  9993
2 60209  97.2988 192.4391 0024749  69.9157 290.4742 15.26633931 23983
GRBBeta
1 60237U 24128C   24343.37305210  .00008290  00000-0  67742-3 0  9990
2 60237  61.9947 356.9852 0030498  11.5109 348.6671 14.99703161 22690
Curium One
1 60242U 24128H   24343.73592181  .00012957  00000-0  10324-2 0  9999
2 60242  61.9851 355.7931 0030814   3.6470 356.4838 15.00297973 22751
ROBUSTA-3A
1 60243U 24128J   24343.82647770  .00013018  00000-0  10460-2 0  9995
2 60243  61.9916 355.7931 0028884   1.1603 358.9548 15.00018228 22769
CatSat
1 60246U 24125J   24343.55485497  .00019520  00000-0  76908-3 0  9995
2 60246  97.2788 192.9439 0049060  25.6661 334.6996 15.24493933 22044
CosmoGirlSat
1 60953U 98067WT  24343.67168105  .13878711  12527-4  44135-3 0  9990
2 60953  51.5977 155.7050 0005998 270.7882  89.2459 16.44564326 15911
CySat-1
1 61501U 98067WZ  24343.77290148  .00307914  00000-0  19829-2 0  9992
2 61501  51.6293 165.5623 0013151 258.8857 101.0664 15.74605117  9625
